Terminal Aerodrome Forecast
Issued by NWS Wilmington, OH

Current Version | Previous Version | Graphics & Text | Print | Product List | Glossary On
Versions: 1 2 3 4 5 6 7 8 9 10 11 12 13 14 15 16 17 18 19 20 21 22 23 24 25
776
FTUS41 KILN 232332
TAFCMH
TAF
KCMH 232332Z 2400/2424 25009KT P6SM FEW016 BKN024 OVC035
     FM240300 33006KT 5SM BR OVC012
     FM240700 36005KT 5SM BR VCSH OVC008
     FM241300 05008KT 5SM -SHRA OVC015
     FM242000 08010KT P6SM VCSH OVC022=

USA.gov is the U.S. government's official web portal to all federal, state and local government web resources and services.